Wind_Speed
133 132 131 130 129 128 128 128 127 125 125 124 123 123 123 123 122 122 122 122 123 125 128 128 128 129 130 129 128 127 126 125 125 124 123 122 121 121 121 120 120 119 119 118 118 118 117 117 117 118 118 118 118 117 117 117 117 116 116 116 116 115 115 114 113 113 113 113 113 114 116 118 120 122
131 131 130 130 129 129 130 131 131 130 129 129 129 128 128 128 127 126 126 125 125 127 130 131 132 133 133 133 133 132 130 129 129 128 127 126 125 125 125 124 124 123 123 122 122 122 122 122 122 122 122 122 121 121 120 120 120 120 120 119 119 118 117 116 116 115 115 116 116 117 117 118 119 121
128 127 127 127 127 127 128 129 129 130 131 131 132 132 132 132 132 131 130 129 128 130 133 135 136 137 137 136 136 136 135 134 133 132 131 130 130 130 129 128 128 128 127 127 126 126 126 126 126 126 126 126 125 125 124 124 124 124 124 123 122 120 119 118 118 117 117 118 119 119 120 120 121 122
124 123 123 122 123 124 124 125 125 126 127 129 130 132 132 133 133 133 134 132 131 133 137 139 139 140 141 140 140 139 139 139 138 136 135 134 134 134 133 133 132 132 131 131 131 130 130 131 131 131 130 130 129 129 128 128 128 128 128 127 126 124 122 121 120 119 119 120 120 121 122 122 123 124
121 120 119 118 119 120 121 121 121 121 122 124 126 127 128 130 131 132 133 133 133 135 139 142 142 143 144 144 144 143 143 142 142 140 139 138 137 137 137 136 135 135 134 134 134 134 134 134 135 135 134 133 133 132 132 132 132 132 132 131 130 129 127 125 123 122 121 121 122 123 123 124 125 126
119 118 117 117 118 119 119 118 118 118 118 119 120 121 122 124 126 127 128 129 131 134 139 142 144 145 146 147 147 147 146 146 145 144 142 141 140 140 139 139 138 138 137 137 137 137 137 137 137 137 137 136 135 135 135 135 135 135 135 134 133 132 131 129 127 125 124 123 123 124 125 126 127 128
118 117 115 115 116 118 119 118 117 117 117 117 116 116 116 117 119 121 122 123 125 129 133 138 141 143 145 147 148 149 148 148 147 147 145 144 143 142 142 141 141 141 141 140 139 139 139 139 139 139 139 138 137 137 137 137 137 137 137 136 136 135 134 132 130 128 126 125 125 125 126 127 128 129
115 114 113 113 114 115 116 116 116 117 116 116 114 113 112 113 114 115 117 117 118 121 125 129 133 137 140 143 145 147 148 148 147 147 147 146 145 144 144 143 143 143 143 142 141 140 140 140 141 140 139 138 137 137 137 137 137 137 137 137 136 135 134 133 132 130 128 126 125 125 126 127 129 131
111 111 111 111 111 112 112 113 113 114 114 113 112 110 110 110 111 112 112 112 113 115 117 119 122 126 130 133 137 140 142 144 144 144 144 145 144 144 144 144 144 144 144 143 142 141 140 141 141 140 138 137 136 136 135 135 135 135 135 135 135 134 134 133 132 130 128 127 125 125 126 127 129 132
106 106 107 108 108 109 109 109 110 111 111 111 109 108 107 107 108 109 109 110 110 112 113 113 115 118 120 123 126 129 132 135 136 137 137 138 139 140 140 141 142 142 142 142 141 140 140 140 140 139 137 136 135 134 133 133 133 133 133 133 133 132 132 132 131 130 128 126 125 124 125 127 129 132
102 102 103 104 105 105 105 105 105 107 108 107 106 105 104 104 105 105 106 107 108 109 110 110 112 114 116 116 118 120 123 125 126 127 128 129 130 132 133 134 135 136 136 135 136 136 136 137 137 136 134 133 131 131 130 129 129 129 129 129 129 129 129 129 129 129 127 125 124 122 123 126 128 131
99 99 100 101 102 103 102 101 101 102 103 103 103 103 102 101 101 101 102 104 105 106 107 107 109 111 112 113 114 116 117 119 120 120 121 120 121 122 123 123 124 124 124 125 126 128 129 130 129 129 127 126 125 124 124 124 124 124 124 124 124 124 125 126 126 126 125 123 122 121 122 124 127 130
96 96 97 97 98 100 100 98 97 97 99 100 100 100 99 98 98 98 99 100 102 103 104 104 106 107 107 108 110 112 113 114 115 116 115 114 113 113 114 114 115 115 115 116 119 121 122 122 122 121 121 120 119 118 118 118 118 118 118 118 119 119 120 122 123 122 121 120 119 119 120 122 126 128
91 93 93 94 95 96 97 95 94 94 96 97 98 98 97 95 94 95 95 96 98 100 101 102 103 103 104 105 107 108 109 109 110 110 110 109 109 108 108 108 109 109 110 111 114 116 117 117 116 116 116 115 114 114 114 114 113 113 113 113 114 115 116 118 118 118 117 115 114 115 117 120 123 126
87 89 90 91 91 92 93 92 91 92 93 95 96 96 95 92 92 92 92 94 96 97 97 98 99 100 101 102 103 104 104 104 104 105 104 104 104 104 104 104 105 106 108 109 111 112 112 112 112 113 113 112 111 111 110 110 109 108 108 109 110 112 113 114 114 113 111 110 109 110 113 116 120 123
83 85 86 87 87 87 88 88 88 88 91 93 94 94 92 90 89 89 90 92 93 94 94 95 95 96 97 99 100 100 100 100 100 100 99 99 100 101 101 102 104 105 105 106 107 108 108 107 109 110 110 109 109 108 107 106 105 105 106 107 108 110 111 110 109 107 106 104 104 105 108 112 116 120
79 80 81 82 82 82 83 84 85 85 87 90 91 91 89 87 86 87 89 91 92 92 92 92 92 94 94 95 96 96 96 96 95 96 96 97 98 99 100 101 102 101 101 101 103 105 105 105 107 108 108 107 106 105 104 103 102 102 103 105 107 108 108 107 104 102 101 99 100 101 105 109 114 117
76 76 76 76 76 77 78 79 81 83 84 86 88 87 85 84 85 86 87 89 91 91 90 90 91 92 92 92 92 91 91 91 92 93 94 95 95 96 97 98 97 96 96 99 102 103 103 103 106 106 105 104 103 101 101 100 100 100 102 104 105 106 105 103 100 98 96 96 96 99 102 107 111 115
71 73 72 72 72 73 74 75 78 80 81 82 83 83 81 81 83 84 86 88 89 89 89 90 90 90 89 88 88 87 86 87 88 89 90 90 91 93 94 94 94 93 94 97 99 100 100 102 104 104 102 101 100 99 98 98 98 99 100 102 103 103 101 99 97 94 93 93 94 97 100 104 108 112
67 68 68 68 69 70 71 72 74 77 78 79 79 78 77 78 81 83 85 86 87 87 87 88 88 87 86 85 84 83 84 85 85 84 85 86 88 89 90 90 90 91 92 95 96 97 98 100 101 100 99 99 98 97 96 96 96 97 98 99 100 99 97 95 93 91 90 91 93 95 99 102 106 109
63 64 65 65 66 67 68 69 72 74 76 75 74 73 74 76 79 81 83 83 83 83 84 86 86 84 83 83 81 81 82 82 81 80 81 83 84 85 86 86 86 88 90 92 93 95 96 97 98 97 96 96 95 94 94 95 95 95 96 97 97 96 94 92 90 89 89 90 92 94 97 100 103 106
60 61 61 62 63 64 66 67 69 71 71 69 68 69 71 74 77 79 80 80 80 81 82 83 82 81 80 80 79 79 79 79 78 78 80 81 80 81 81 82 84 86 87 89 91 92 94 94 94 94 94 94 93 92 93 93 93 93 93 94 94 93 92 90 88 87 87 88 90 92 95 98 101 103
57 57 58 58 60 62 63 64 66 67 66 64 65 67 69 71 75 77 77 77 78 79 79 79 78 77 77 76 76 77 77 77 76 77 78 78 78 79 79 80 82 83 84 87 88 90 91 91 91 91 91 90 90 90 91 91 91 91 91 92 92 91 89 87 86 85 85 86 88 91 94 96 99 100
53 54 54 55 57 59 60 61 63 62 60 61 64 66 67 70 74 75 75 75 74 72 73 74 73 73 74 74 74 75 75 75 75 75 76 76 76 77 77 78 79 80 81 84 86 86 87 88 88 88 87 87 87 88 89 89 89 89 89 90 90 88 87 86 85 85 85 86 87 90 92 94 96 98
50 50 51 53 54 55 57 58 58 56 57 60 63 64 66 70 73 73 71 69 66 65 68 70 70 70 71 72 73 73 73 74 75 74 74 74 74 74 75 76 76 77 79 81 82 83 84 85 85 84 83 83 84 86 86 87 87 87 87 87 87 86 85 85 85 84 84 85 86 88 90 92 93 95
47 47 48 50 51 52 53 53 52 52 55 59 61 63 66 69 69 67 63 60 59 61 65 67 66 67 69 70 71 71 72 73 73 72 73 73 72 72 73 74 74 75 76 77 78 79 80 81 81 80 80 81 82 83 84 84 84 84 84 85 84 84 84 84 83 83 83 84 85 86 88 89 91 92
44 45 45 46 47 48 48 47 47 49 53 57 60 61 63 64 62 58 55 55 57 61 63 63 64 66 67 68 69 70 71 71 71 71 71 71 70 71 71 72 73 73 74 74 75 76 77 77 76 76 77 78 80 80 80 80 81 81 81 81 82 82 82 82 81 81 82 82 83 84 85 87 88 89
42 42 42 43 44 44 43 43 44 47 51 55 57 57 57 56 54 52 52 54 57 59 60 60 62 64 65 66 68 69 70 70 69 69 69 68 68 68 69 70 71 72 72 72 73 73 73 73 73 73 74 76 77 77 77 77 78 78 78 79 79 79 79 79 79 80 80 81 81 82 83 84 85 86
39 39 40 41 42 41 41 41 42 45 49 52 52 52 51 50 50 51 53 55 57 58 58 58 60 62 64 65 67 68 67 67 66 66 66 65 66 67 68 69 69 70 70 70 70 70 69 69 70 71 72 74 74 74 75 75 75 75 76 76 77 77 77 77 78 78 78 79 79 80 81 82 83 84
37 37 38 39 39 39 39 40 42 45 47 48 48 48 48 49 50 52 54 56 57 57 57 58 60 62 63 64 65 65 65 64 64 63 63 64 65 67 68 67 67 67 67 67 67 67 67 67 68 69 71 72 72 72 73 73 73 73 74 74 75 75 74 75 76 76 77 77 78 79 80 81 81 83
35 35 36 37 37 37 37 39 41 43 45 45 45 46 49 52 54 54 54 55 55 55 55 56 59 60 61 62 63 63 62 62 62 62 63 64 65 66 66 65 65 65 65 65 64 65 65 66 67 68 69 70 70 70 70 70 70 71 71 72 72 72 72 73 74 74 75 76 77 78 79 80 81 82
33 33 34 35 35 35 36 38 40 42 43 44 45 48 51 54 54 53 53 53 53 52 54 56 58 59 60 60 61 61 61 61 62 63 64 65 64 64 64 63 64 63 63 62 63 63 64 64 65 67 67 68 68 68 68 68 68 69 69 69 69 70 70 71 72 72 73 74 76 77 79 80 80 82
31 31 32 33 34 35 36 37 39 41 43 44 46 49 52 52 51 50 51 51 51 52 54 57 58 58 58 59 60 61 61 61 63 64 64 63 62 62 62 62 62 61 61 61 61 62 62 63 64 65 65 66 66 65 65 65 66 66 66 67 67 68 68 69 69 71 72 73 75 77 78 79 80 81
30 30 30 32 33 34 35 37 38 40 42 43 45 47 48 48 48 49 50 50 50 52 55 56 57 57 58 59 60 61 61 62 63 63 62 62 62 62 61 60 60 59 59 60 60 60 61 61 63 63 63 64 64 63 63 63 64 64 64 65 66 66 66 67 68 69 71 72 74 75 77 78 79 80
28 28 29 30 32 33 35 37 38 39 40 40 42 44 44 45 46 48 48 48 50 52 53 54 55 56 57 59 60 60 61 62 62 62 62 62 61 61 60 59 59 58 59 59 59 59 60 60 61 61 61 62 62 61 61 62 62 62 63 63 64 64 65 65 66 68 69 70 72 74 75 76 78 79
27 27 28 29 31 33 34 35 37 37 38 39 40 41 41 42 44 45 45 47 49 50 51 52 54 56 57 58 58 59 60 60 61 61 61 61 60 60 59 59 58 58 58 59 58 58 59 60 60 60 60 60 60 59 60 60 61 61 61 62 62 63 64 64 65 66 68 69 71 72 73 75 76 77
25 26 27 29 30 32 33 34 35 36 38 39 40 40 40 40 41 41 42 45 47 49 50 52 54 55 56 56 56 57 58 59 59 60 60 59 59 59 58 58 58 57 58 58 57 57 58 58 58 58 58 58 58 58 58 59 60 60 60 60 61 62 62 63 64 65 66 68 69 71 72 73 74 75
24 25 27 29 30 31 33 33 34 36 38 40 41 40 40 39 39 40 41 44 46 48 50 51 52 53 53 54 54 55 56 57 57 58 58 58 58 57 57 57 56 56 56 56 56 56 57 57 57 57 57 57 57 58 58 58 59 59 59 59 60 60 61 62 63 64 65 66 68 69 70 71 72 74
22 24 26 28 30 31 33 35 36 37 38 39 39 38 38 39 39 40 42 43 45 47 48 49 50 51 51 52 52 53 54 54 54 55 55 55 55 55 55 55 55 55 55 55 55 55 56 56 56 56 56 57 57 57 57 58 58 57 58 58 59 59 60 61 61 62 64 66 67 68 69 70 71 72
21 22 24 26 28 30 32 34 36 37 38 38 37 37 37 38 39 40 42 43 44 45 47 48 49 49 50 50 50 51 51 51 51 51 51 52 52 52 52 53 53 54 54 54 54 54 54 55 55 56 56 56 56 56 56 57 56 56 57 57 58 58 59 60 61 62 63 65 66 67 68 69 70 71
19 20 22 24 26 27 29 31 33 35 35 36 36 37 37 38 40 41 42 43 44 45 46 47 48 48 48 48 48 48 48 48 48 48 49 50 50 51 51 52 52 53 53 52 52 53 53 54 55 56 56 55 55 54 55 55 55 55 56 57 57 58 59 60 60 62 63 64 66 66 67 67 68 70
18 19 20 21 23 25 27 28 29 30 32 33 35 36 38 39 40 41 42 43 44 45 45 46 46 46 46 46 46 46 46 46 46 47 48 49 50 51 51 51 52 52 51 51 51 52 53 54 55 55 54 53 52 53 53 53 54 55 55 56 57 58 59 59 60 62 63 64 65 65 65 66 67 69
18 19 20 21 21 23 25 26 26 27 28 31 33 35 36 38 39 40 41 42 43 44 45 45 44 44 44 44 45 45 45 45 46 47 48 49 50 50 51 51 50 50 50 51 52 52 52 53 54 53 51 51 51 52 52 52 53 54 55 56 57 58 59 59 60 61 62 63 64 64 64 65 66 68
18 19 20 21 21 22 23 24 25 26 27 29 30 32 34 36 37 38 40 41 42 43 43 43 43 43 44 44 44 45 45 46 46 47 48 49 50 50 50 50 50 50 50 51 52 51 52 52 52 51 50 50 51 51 52 52 53 54 55 55 57 58 58 59 59 60 61 62 63 63 63 64 66 68
17 18 19 20 21 22 22 23 24 25 27 28 29 30 31 33 34 35 37 38 40 40 41 41 42 43 44 44 45 46 46 47 48 48 49 49 50 50 50 50 49 50 50 51 51 51 51 51 51 50 49 50 51 51 52 52 53 54 54 55 56 57 58 58 59 59 60 61 62 62 63 64 66 67
Wind_Direction
266 265 264 263 261 260 259 258 256 254 253 251 249 247 246 245 244 244 244 244 245 246 247 248 248 249 250 250 249 248 247 247 247 248 247 247 247 248 248 248 249 249 249 249 249 249 249 250 250 250 250 250 249 249 249 249 248 248 247 246 244 243 241 240 239 238 237 237 236 236 236 235 234 234
266 265 264 263 262 261 259 258 257 256 254 253 251 250 248 246 245 244 243 243 244 246 247 248 248 248 249 250 250 250 249 248 248 248 248 248 248 248 248 248 249 249 249 249 249 249 250 250 250 250 250 250 250 250 250 250 249 249 248 247 246 244 243 241 240 239 238 237 236 236 235 235 235 234
266 265 265 264 263 262 260 259 258 256 255 254 253 251 250 248 247 246 245 244 244 245 246 247 248 248 249 249 249 250 250 249 249 248 248 248 248 248 248 248 248 249 249 249 249 249 250 250 250 250 250 250 250 250 250 250 250 250 249 249 248 246 244 243 241 239 239 238 237 236 235 235 235 235
267 266 265 264 263 262 261 260 259 257 256 255 254 253 251 250 249 247 246 245 244 244 246 246 247 248 248 249 249 249 250 250 249 249 249 248 248 249 249 249 248 248 249 249 249 249 250 250 250 250 250 250 250 250 250 250 250 250 250 250 249 248 247 245 243 241 239 239 238 237 236 235 235 235
267 266 265 265 264 263 262 261 260 258 257 256 255 254 253 252 251 249 248 246 245 244 245 246 247 247 248 248 249 249 249 250 250 250 249 249 249 249 249 249 249 249 249 249 249 249 249 250 250 250 249 249 249 250 250 250 250 250 250 250 250 249 249 247 245 243 241 239 238 238 237 236 235 234
267 267 266 265 264 264 263 261 260 259 258 256 255 254 253 252 252 251 250 248 246 245 245 246 246 247 248 248 249 249 249 249 250 250 250 250 250 250 250 250 251 250 250 250 250 250 250 250 250 250 250 249 249 249 249 250 250 250 250 250 250 250 249 248 247 245 243 241 239 238 237 236 235 234
267 266 265 265 264 263 262 262 261 260 259 257 256 254 253 252 252 251 250 249 248 247 246 246 246 246 247 248 248 249 249 249 249 249 250 250 250 250 251 251 251 251 251 251 251 251 250 250 250 250 250 250 249 249 249 249 250 250 250 250 250 250 249 249 248 246 244 242 240 238 237 236 235 234
266 265 265 264 263 262 261 261 260 260 259 258 256 255 254 253 252 252 251 250 248 247 247 246 246 246 247 247 248 248 249 249 249 249 249 249 249 250 250 251 251 251 252 252 251 251 251 251 251 251 250 250 250 250 249 249 249 250 250 250 250 249 249 248 248 246 244 242 240 238 236 235 235 234
264 264 263 262 261 261 260 260 259 259 258 257 256 255 254 254 253 252 251 250 249 248 247 247 246 246 246 246 247 248 248 248 248 248 248 249 249 249 249 250 250 251 251 252 252 252 252 252 251 251 251 251 250 250 250 250 249 249 249 249 249 249 249 248 247 246 244 242 240 238 236 235 234 234
263 262 262 261 260 260 259 258 258 258 258 257 257 256 255 254 253 252 252 251 250 249 249 247 247 247 246 246 246 246 247 247 248 248 248 248 248 248 248 248 248 249 250 250 251 251 252 252 252 252 251 251 250 250 250 250 249 249 249 249 248 248 248 247 246 245 244 242 240 238 236 235 234 234
262 261 261 260 260 259 258 257 257 257 257 257 256 256 255 254 253 252 252 251 250 250 249 248 247 247 247 246 246 246 246 247 247 247 247 246 246 246 246 247 247 247 248 249 250 250 250 250 251 251 251 250 250 250 249 249 249 248 248 247 247 247 247 246 246 245 244 242 240 238 236 235 234 233
262 261 260 259 259 259 258 257 256 256 256 256 256 255 254 253 252 252 251 251 250 249 249 248 248 247 247 247 246 246 246 246 246 246 246 245 245 245 245 246 246 246 247 247 248 248 249 249 249 249 249 249 249 248 248 247 247 247 246 246 246 246 245 245 245 244 243 242 240 238 236 235 234 233
261 261 260 259 258 258 258 257 256 255 255 255 255 254 253 252 251 251 250 250 249 249 249 248 248 247 247 247 246 246 246 246 246 246 246 246 246 246 246 246 246 246 246 246 247 247 247 247 248 248 248 248 248 247 247 246 246 246 245 245 245 245 244 244 244 243 242 241 240 238 237 235 234 233
261 260 259 258 257 257 257 256 256 255 254 254 254 253 252 251 250 249 249 249 248 248 248 247 247 247 247 246 246 246 246 246 246 246 246 246 246 246 245 245 245 245 245 245 245 246 246 246 247 247 247 247 247 247 246 246 245 245 245 245 244 244 244 243 243 243 242 240 239 238 236 235 234 233
260 259 258 257 256 256 256 256 255 254 253 253 252 252 251 250 249 249 248 247 247 247 246 246 246 246 246 246 246 246 246 246 246 246 246 246 246 245 245 245 244 244 243 243 243 244 245 245 246 246 246 246 246 246 246 245 245 245 245 245 244 244 244 243 243 242 241 240 238 237 236 235 234 233
258 258 257 257 256 256 255 255 254 253 252 252 251 251 251 250 249 248 247 247 246 246 245 245 245 245 244 244 245 245 245 245 245 246 246 246 245 245 244 243 242 242 241 242 242 243 243 244 244 245 245 245 245 245 245 245 244 244 244 244 244 244 244 243 243 242 241 239 238 236 235 234 234 233
258 257 256 256 256 255 254 254 253 252 251 250 251 250 250 249 248 247 247 246 246 245 245 244 244 244 243 243 243 243 244 244 245 245 245 244 244 244 243 242 242 241 241 241 242 242 242 242 243 244 244 244 244 244 244 244 244 243 243 243 243 244 244 243 243 242 241 239 238 236 235 234 233 233
259 258 256 255 254 253 252 251 251 250 249 249 249 249 249 248 247 246 245 245 245 244 244 243 243 242 242 242 242 242 242 243 243 243 243 243 243 243 243 242 242 241 241 241 241 241 241 241 242 243 243 243 243 244 243 243 243 243 243 243 243 243 244 244 243 242 241 239 237 236 234 234 233 233
258 258 256 255 253 252 250 249 249 249 248 248 248 248 247 246 245 245 244 243 243 243 243 242 242 242 242 241 241 241 241 241 241 241 241 241 242 242 242 242 241 241 240 240 240 240 240 240 241 242 242 243 243 243 243 243 242 242 242 242 243 243 244 244 243 242 241 239 237 235 234 233 233 233
258 257 256 255 253 251 250 248 248 248 247 247 247 246 246 245 244 243 243 242 242 242 242 242 242 242 241 241 241 240 240 239 240 240 240 240 240 240 240 240 240 240 239 239 239 239 239 240 240 241 242 242 242 242 242 242 241 241 241 242 243 243 243 243 242 241 239 238 236 235 234 233 233 233
257 256 255 253 252 251 249 247 246 246 246 246 246 245 244 243 243 242 242 242 242 242 241 241 241 241 241 241 240 240 240 239 239 239 239 239 239 239 239 239 239 239 238 238 238 239 239 239 240 240 241 241 241 241 241 241 241 240 241 241 242 242 242 242 241 240 238 236 235 234 233 233 233 232
257 255 254 253 251 250 248 247 245 245 246 246 245 244 243 242 242 242 241 241 240 240 240 240 240 240 240 240 240 239 239 239 239 238 238 238 238 238 238 238 238 237 237 237 237 238 238 239 239 239 240 240 241 241 241 241 240 240 240 241 241 241 241 241 240 239 237 235 234 233 232 232 232 232
256 255 253 252 250 248 247 246 245 245 245 244 243 242 241 241 241 241 241 240 239 238 239 239 239 239 239 239 239 239 239 238 238 238 238 238 238 237 237 237 237 236 236 236 237 237 238 238 239 239 239 239 240 240 240 240 240 240 240 240 240 240 240 240 239 238 236 235 233 232 232 232 231 231
256 255 253 251 249 248 247 246 245 245 244 242 241 240 239 239 240 240 240 239 238 238 239 239 239 238 238 238 238 237 237 237 237 237 237 237 237 237 237 237 237 236 236 236 236 236 237 238 238 238 238 238 239 239 239 239 239 239 239 239 239 239 239 239 238 237 235 234 233 232 231 231 231 231
256 254 253 251 249 248 247 246 245 244 242 240 239 238 237 238 239 239 239 239 239 238 238 238 237 237 236 236 236 236 235 235 235 235 236 236 236 236 236 236 236 235 235 235 235 236 236 237 237 237 237 237 237 238 238 238 238 238 238 238 238 238 238 237 236 235 234 233 232 232 231 230 230 230
256 254 252 250 249 248 247 246 245 243 240 238 238 237 237 238 239 240 240 240 238 236 236 236 235 235 234 234 234 234 233 234 234 234 234 235 235 235 235 235 235 234 234 234 234 235 235 235 236 236 236 236 236 237 237 237 237 237 237 237 237 237 236 236 235 234 234 232 232 231 230 230 229 229
256 253 251 249 248 247 246 245 244 241 239 237 237 237 238 239 241 241 240 238 236 235 235 235 234 233 232 232 232 232 232 232 232 232 233 234 234 235 234 234 233 233 233 233 233 233 234 234 234 235 235 235 235 236 236 236 236 236 236 236 236 235 235 235 234 233 233 232 231 230 230 229 229 228
255 253 251 249 247 246 244 243 241 239 238 237 237 237 238 240 240 240 237 235 234 233 234 233 232 231 230 230 230 231 231 231 231 231 232 233 233 234 234 233 233 233 232 232 232 233 233 233 233 234 234 234 234 235 235 234 234 234 235 235 234 234 234 233 233 232 232 231 230 230 229 229 228 227
254 252 250 247 245 243 241 239 237 236 235 236 236 236 236 236 236 235 233 231 230 230 230 230 229 229 229 228 229 229 229 229 230 230 231 232 232 232 232 232 232 232 232 232 232 232 232 232 232 233 233 233 233 233 233 233 233 233 233 233 233 233 233 232 232 232 231 230 230 229 229 228 227 226
252 249 247 245 242 240 238 235 234 233 233 233 233 232 231 231 230 229 229 229 228 228 227 227 227 227 227 227 227 228 228 228 228 229 229 230 230 231 231 231 231 231 231 231 231 231 231 231 231 232 232 232 232 232 232 232 232 232 232 232 232 232 231 231 231 230 230 229 229 228 228 227 226 225
248 246 244 242 239 236 235 233 232 231 231 230 229 227 226 226 225 225 225 226 226 226 226 225 226 226 226 225 226 226 226 226 226 227 228 228 229 229 230 229 230 230 230 230 230 230 230 230 230 231 231 232 232 231 231 231 231 231 231 231 231 231 230 230 230 230 229 228 228 228 227 226 225 225
246 244 242 240 236 233 231 229 228 228 227 226 224 223 224 224 224 223 223 224 224 224 224 224 224 224 224 223 224 224 224 224 224 225 226 227 227 228 228 228 228 228 228 228 228 228 229 229 229 230 230 231 231 231 230 231 231 230 230 230 230 230 229 229 229 228 228 227 227 227 226 225 224 224
244 242 240 238 234 230 228 227 226 226 225 223 222 222 223 223 223 222 223 223 223 222 222 222 222 222 222 221 221 222 222 222 223 224 225 226 226 227 227 227 227 227 227 227 227 227 227 228 228 229 230 230 230 230 230 230 230 230 230 229 229 229 229 228 228 227 227 226 226 226 225 224 224 223
243 240 237 235 232 229 226 224 223 223 223 222 222 223 224 223 222 222 223 222 222 222 222 222 221 221 220 220 220 220 220 221 222 223 224 225 225 225 226 225 225 225 225 226 226 226 227 227 228 229 229 230 230 229 229 229 229 229 229 228 228 228 228 227 227 226 226 226 225 225 224 224 223 222
243 239 236 234 231 228 225 223 222 221 221 220 221 222 223 223 222 222 222 221 221 221 222 222 221 220 220 220 220 220 220 221 222 223 224 224 224 225 225 224 224 224 224 225 225 225 226 227 227 228 228 229 229 228 228 228 228 228 227 227 227 227 227 226 226 225 225 225 224 224 223 223 222 221
242 238 234 231 229 227 225 223 222 220 218 217 218 219 220 221 222 223 222 222 221 221 221 220 220 220 220 220 220 220 221 222 223 223 224 224 224 224 224 224 223 223 223 224 224 224 225 226 227 227 228 228 227 227 226 226 227 226 226 226 226 226 225 225 224 224 224 223 223 222 222 222 221 221
239 235 232 229 227 225 223 222 220 218 215 214 214 215 216 218 220 221 221 222 222 221 220 220 220 220 220 220 221 221 221 222 223 224 224 224 224 223 223 223 223 222 222 222 223 223 225 226 226 227 227 227 226 226 225 225 225 225 225 225 225 225 224 224 223 223 222 222 222 221 221 220 220 219
238 234 230 227 225 223 220 217 216 216 215 214 213 212 212 213 215 217 219 220 221 221 221 220 220 220 220 220 221 221 222 222 223 224 224 224 224 223 222 222 221 221 221 221 221 222 224 225 225 225 225 225 225 224 224 224 224 224 224 224 224 224 223 223 222 222 221 221 221 220 220 219 219 218
237 234 231 227 224 222 219 215 213 212 214 214 214 212 210 211 212 214 216 217 219 220 220 220 220 220 219 220 220 221 222 222 223 223 224 224 223 222 221 220 220 220 220 220 220 221 223 223 223 223 223 223 223 223 222 223 223 223 223 223 223 223 222 222 221 220 220 220 220 219 219 218 218 217
237 233 232 229 225 223 222 220 217 213 212 212 211 210 209 209 210 212 214 215 217 218 218 219 219 219 219 219 219 220 221 221 222 223 223 223 222 221 220 219 218 218 218 219 219 221 221 222 222 222 222 222 222 222 222 222 222 222 222 222 222 221 221 221 220 219 219 219 219 219 218 217 217 217
237 232 232 231 228 224 224 224 223 219 215 211 208 207 207 208 209 211 213 213 215 216 216 217 218 218 218 218 218 219 219 219 219 220 220 220 220 219 218 217 217 217 218 218 219 219 220 220 221 221 221 221 221 222 222 222 222 222 221 221 220 220 220 219 218 218 218 218 218 218 217 216 216 216
234 229 227 228 227 225 223 223 225 224 220 214 209 207 207 208 209 211 212 213 214 215 216 216 217 217 217 217 217 217 217 217 217 217 217 217 217 216 215 215 215 216 217 217 218 218 219 220 221 221 221 221 221 222 222 221 221 221 220 220 219 219 218 218 217 217 217 217 217 217 216 215 215 215
230 225 222 221 221 222 221 220 221 221 220 217 214 211 210 210 210 211 212 213 214 215 215 215 215 216 215 216 216 215 215 215 215 215 215 215 214 214 213 213 214 215 215 216 217 217 218 219 221 221 221 221 221 221 221 220 220 220 219 218 218 218 217 217 216 216 216 217 217 216 214 214 214 215
229 225 221 218 217 218 219 218 216 215 216 217 217 216 214 213 213 212 213 213 214 215 215 215 214 214 213 213 214 213 213 213 212 213 213 213 213 212 211 211 212 213 214 215 216 216 217 219 221 220 220 220 221 221 220 219 219 219 218 217 217 217 216 215 215 215 215 216 216 215 214 213 213 214
230 225 221 218 217 216 216 216 215 214 213 214 215 216 216 216 216 215 215 215 215 215 215 214 214 213 212 212 212 212 212 211 211 211 211 211 211 211 210 210 211 211 213 214 215 216 217 219 220 220 219 219 219 219 219 219 218 218 217 216 216 216 215 214 214 214 214 215 215 214 213 212 213 213
Height
10101 10104 10108 10112 10118 10124 10126 10127 10133 10140 10144 10148 10155 10160 10165 10169 10175 10183 10189 10194 10198 10196 10190 10192 10196 10196 10197 10201 10209 10216 10223 10229 10231 10236 10245 10252 10255 10259 10264 10269 10274 10279 10285 10290 10295 10300 10304 10309 10312 10315 10318 10322 10327 10332 10337 10341 10346 10351 10355 10361 10367 10374 10381 10388 10395 10401 10407 10413 10419 10423 10428 10433 10440 10446
10075 10077 10081 10085 10090 10096 10100 10101 10106 10113 10118 10122 10128 10134 10140 10144 10150 10161 10169 10174 10181 10179 10172 10173 10175 10175 10178 10180 10185 10192 10200 10207 10211 10217 10225 10231 10236 10240 10245 10251 10256 10260 10266 10271 10277 10282 10286 10290 10294 10297 10300 10305 10310 10315 10319 10323 10328 10332 10337 10342 10348 10355 10363 10371 10379 10385 10391 10397 10401 10406 10412 10418 10425 10431
10049 10052 10056 10060 10064 10068 10071 10074 10080 10086 10090 10095 10101 10106 10113 10118 10125 10137 10144 10152 10165 10162 10152 10152 10152 10151 10156 10161 10164 10170 10177 10183 10188 10197 10205 10210 10215 10219 10225 10232 10237 10241 10246 10252 10258 10263 10267 10271 10274 10278 10282 10287 10292 10297 10301 10305 10309 10314 10318 10323 10329 10336 10345 10353 10360 10367 10374 10379 10383 10389 10397 10403 10409 10414
10025 10028 10033 10037 10040 10042 10044 10048 10054 10060 10064 10068 10073 10079 10085 10091 10099 10110 10116 10127 10144 10142 10130 10131 10132 10130 10134 10139 10143 10150 10155 10158 10165 10174 10183 10189 10193 10198 10204 10211 10216 10222 10228 10233 10238 10243 10247 10251 10254 10258 10263 10268 10274 10278 10283 10286 10290 10295 10299 10304 10310 10317 10325 10332 10340 10348 10355 10361 10366 10372 10378 10385 10390 10396
10002 10005 10011 10016 10018 10017 10018 10023 10029 10033 10038 10042 10047 10053 10060 10065 10072 10082 10088 10100 10116 10117 10109 10109 10111 10111 10112 10116 10122 10128 10132 10137 10143 10151 10160 10166 10171 10178 10183 10189 10195 10201 10207 10212 10217 10222 10226 10230 10233 10237 10243 10249 10254 10259 10264 10268 10271 10276 10280 10286 10292 10297 10304 10311 10318 10327 10334 10341 10347 10353 10360 10367 10373 10380
9979 9982 9989 9994 9996 9993 9993 9999 10005 10008 10012 10017 10022 10029 10035 10041 10047 10054 10061 10071 10084 10089 10087 10086 10088 10091 10092 10094 10099 10103 10108 10115 10120 10128 10137 10144 10150 10156 10162 10167 10173 10178 10184 10189 10194 10200 10205 10209 10211 10215 10222 10228 10234 10239 10244 10248 10252 10256 10261 10266 10272 10277 10283 10289 10296 10305 10313 10321 10328 10335 10342 10348 10355 10363
9958 9960 9966 9971 9973 9970 9970 9976 9981 9983 9987 9992 9997 10005 10011 10017 10023 10029 10034 10043 10055 10061 10062 10063 10066 10070 10072 10073 10076 10079 10084 10092 10098 10106 10115 10122 10129 10135 10141 10146 10151 10155 10160 10165 10171 10178 10184 10187 10189 10193 10200 10207 10213 10218 10224 10228 10232 10236 10240 10246 10251 10257 10262 10268 10275 10283 10291 10299 10307 10315 10322 10329 10336 10344
9938 9939 9943 9948 9949 9947 9949 9954 9958 9959 9963 9967 9974 9982 9989 9994 10001 10005 10009 10018 10028 10034 10037 10041 10044 10047 10051 10053 10055 10058 10062 10068 10076 10084 10092 10099 10107 10114 10120 10125 10130 10133 10137 10142 10149 10156 10161 10163 10166 10171 10178 10185 10192 10197 10203 10207 10212 10216 10220 10225 10230 10236 10241 10247 10253 10261 10269 10278 10287 10295 10303 10310 10316 10324
9919 9919 9922 9925 9926 9926 9928 9933 9936 9937 9940 9945 9951 9960 9968 9973 9978 9982 9987 9995 10003 10008 10014 10019 10021 10024 10029 10034 10036 10038 10041 10045 10052 10061 10069 10077 10085 10092 10099 10105 10110 10112 10115 10120 10127 10134 10138 10140 10143 10148 10156 10163 10170 10176 10181 10186 10191 10195 10200 10204 10209 10214 10219 10225 10232 10240 10248 10257 10266 10275 10282 10290 10296 10303
9900 9901 9902 9903 9904 9906 9908 9913 9916 9917 9920 9925 9931 9939 9947 9952 9956 9961 9968 9974 9980 9984 9990 9996 9999 10002 10007 10012 10016 10018 10021 10024 10030 10039 10048 10057 10064 10071 10077 10083 10087 10090 10095 10101 10107 10113 10117 10118 10121 10127 10134 10141 10148 10154 10159 10165 10170 10175 10179 10183 10188 10193 10198 10205 10212 10219 10227 10236 10246 10255 10262 10269 10276 10282
9879 9881 9882 9882 9883 9885 9888 9894 9898 9899 9901 9906 9912 9919 9927 9932 9936 9942 9948 9953 9958 9962 9967 9972 9977 9980 9985 9991 9996 9999 10001 10005 10010 10018 10027 10035 10042 10048 10053 10059 10065 10072 10080 10087 10091 10094 10096 10098 10101 10106 10113 10121 10127 10133 10138 10144 10149 10153 10157 10162 10167 10173 10179 10185 10192 10199 10207 10216 10226 10235 10242 10249 10255 10262
9859 9861 9863 9864 9865 9866 9869 9874 9880 9882 9884 9889 9894 9900 9906 9912 9917 9924 9929 9933 9937 9942 9946 9951 9955 9959 9965 9971 9975 9979 9982 9986 9991 9996 10003 10013 10021 10028 10035 10042 10049 10058 10066 10071 10072 10073 10075 10077 10082 10088 10095 10101 10106 10113 10119 10124 10128 10132 10137 10143 10149 10155 10160 10166 10172 10179 10187 10197 10206 10215 10223 10229 10235 10242
9841 9842 9844 9847 9847 9848 9851 9856 9862 9866 9868 9871 9875 9881 9886 9893 9900 9906 9910 9915 9919 9923 9927 9932 9935 9940 9947 9952 9955 9959 9963 9968 9972 9977 9985 9996 10005 10013 10021 10028 10034 10041 10048 10051 10052 10052 10054 10058 10064 10071 10076 10081 10086 10094 10099 10103 10108 10113 10120 10126 10131 10136 10142 10147 10152 10160 10169 10178 10187 10195 10202 10209 10215 10223
9822 9823 9825 9828 9829 9830 9834 9839 9845 9849 9851 9853 9857 9861 9867 9875 9883 9888 9893 9897 9901 9904 9909 9913 9917 9923 9930 9934 9936 9940 9945 9950 9956 9963 9971 9980 9988 9995 10004 10011 10016 10022 10027 10030 10031 10031 10034 10042 10048 10053 10057 10062 10068 10075 10080 10084 10091 10097 10103 10108 10113 10118 10123 10129 10135 10142 10151 10160 10168 10176 10183 10190 10197 10205
9804 9804 9806 9809 9812 9814 9818 9823 9829 9832 9834 9836 9840 9844 9850 9859 9866 9871 9876 9880 9883 9887 9892 9896 9901 9907 9912 9915 9918 9923 9929 9935 9942 9949 9956 9964 9971 9978 9987 9993 9997 10001 10005 10009 10011 10012 10018 10028 10033 10035 10040 10046 10052 10057 10062 10068 10075 10081 10086 10091 10096 10101 10106 10112 10118 10126 10134 10142 10151 10158 10165 10172 10180 10187
9787 9787 9789 9793 9797 9801 9804 9807 9812 9817 9818 9820 9823 9828 9835 9843 9850 9855 9860 9863 9866 9870 9876 9880 9885 9890 9894 9898 9903 9909 9914 9920 9928 9936 9943 9949 9954 9959 9966 9970 9973 9978 9985 9991 9996 9998 10005 10014 10017 10017 10023 10029 10034 10039 10046 10053 10059 10063 10069 10074 10079 10083 10089 10095 10103 10110 10118 10126 10135 10142 10149 10156 10163 10170
9770 9772 9775 9779 9783 9787 9790 9792 9796 9800 9802 9803 9806 9812 9820 9828 9835 9840 9844 9847 9850 9854 9860 9865 9870 9873 9877 9882 9888 9895 9901 9908 9916 9923 9927 9931 9935 9939 9945 9949 9954 9963 9973 9979 9982 9984 9991 9998 9998 9999 10006 10013 10018 10024 10031 10037 10042 10048 10053 10058 10063 10067 10073 10080 10088 10095 10103 10112 10120 10127 10134 10139 10145 10152
9755 9757 9761 9765 9769 9772 9775 9778 9780 9783 9785 9788 9792 9797 9806 9813 9819 9823 9827 9830 9833 9838 9844 9849 9852 9856 9862 9869 9874 9882 9890 9896 9901 9906 9909 9915 9920 9924 9929 9934 9942 9952 9960 9963 9964 9968 9976 9982 9981 9983 9992 9998 10004 10010 10016 10022 10028 10034 10039 10043 10047 10053 10059 10066 10074 10082 10089 10097 10104 10111 10117 10123 10129 10136
9743 9744 9747 9751 9754 9757 9761 9764 9765 9767 9770 9774 9778 9785 9793 9799 9803 9806 9811 9814 9817 9823 9828 9833 9837 9842 9850 9856 9863 9871 9878 9882 9885 9890 9896 9902 9907 9910 9914 9921 9930 9937 9942 9945 9947 9954 9962 9966 9966 9971 9979 9985 9991 9997 10002 10008 10014 10020 10024 10029 10033 10039 10046 10053 10061 10068 10076 10082 10089 10095 10101 10107 10113 10121
9730 9732 9734 9738 9740 9743 9747 9750 9751 9753 9756 9761 9766 9774 9780 9785 9788 9791 9795 9798 9803 9809 9814 9819 9824 9831 9838 9844 9851 9859 9864 9867 9872 9879 9885 9889 9892 9896 9901 9909 9916 9922 9926 9930 9935 9941 9947 9950 9953 9960 9967 9972 9978 9984 9989 9994 10000 10006 10011 10015 10020 10026 10033 10041 10048 10055 10061 10067 10073 10079 10085 10092 10099 10106
9718 9719 9722 9725 9727 9730 9732 9735 9738 9739 9743 9749 9756 9763 9768 9771 9774 9776 9780 9785 9791 9797 9801 9806 9812 9819 9826 9833 9840 9847 9851 9855 9862 9868 9871 9874 9879 9885 9891 9897 9904 9908 9912 9917 9922 9927 9931 9935 9942 9949 9955 9959 9966 9971 9975 9980 9986 9993 9998 10003 10008 10014 10020 10027 10034 10040 10046 10052 10058 10065 10072 10078 10085 10093
9705 9707 9710 9713 9715 9716 9718 9721 9725 9728 9733 9741 9747 9751 9755 9758 9760 9762 9767 9773 9779 9783 9788 9793 9801 9809 9815 9822 9830 9835 9839 9845 9851 9854 9857 9862 9869 9875 9879 9885 9890 9894 9898 9903 9908 9913 9917 9923 9930 9937 9942 9947 9953 9958 9962 9967 9974 9981 9986 9990 9995 10001 10007 10014 10021 10027 10033 10039 10046 10052 10058 10065 10072 10080
9694 9696 9699 9701 9702 9704 9706 9710 9714 9718 9725 9732 9736 9739 9743 9746 9747 9749 9755 9761 9765 9771 9777 9784 9792 9800 9806 9812 9819 9823 9828 9834 9838 9842 9847 9853 9858 9862 9866 9871 9876 9881 9886 9891 9895 9900 9905 9911 9918 9924 9930 9936 9941 9945 9950 9955 9962 9968 9973 9978 9983 9989 9996 10003 10009 10015 10021 10027 10033 10038 10044 10051 10059 10067
9684 9686 9688 9690 9691 9693 9696 9700 9704 9710 9717 9721 9723 9726 9731 9733 9733 9737 9743 9749 9756 9764 9771 9777 9784 9791 9796 9802 9808 9812 9818 9822 9826 9831 9837 9841 9845 9850 9856 9860 9864 9870 9876 9879 9884 9890 9895 9900 9906 9912 9919 9925 9930 9934 9938 9944 9949 9955 9960 9966 9971 9978 9985 9991 9996 10002 10008 10014 10019 10025 10032 10039 10047 10054
9674 9676 9678 9679 9681 9683 9687 9690 9696 9703 9708 9709 9711 9715 9718 9718 9720 9725 9733 9743 9753 9760 9763 9767 9775 9781 9786 9791 9796 9801 9806 9810 9814 9820 9825 9829 9834 9840 9844 9848 9854 9860 9864 9868 9873 9879 9884 9889 9895 9902 9909 9914 9918 9922 9927 9932 9937 9943 9949 9954 9960 9966 9972 9977 9983 9989 9995 10001 10007 10013 10020 10027 10035 10042
9664 9666 9667 9669 9671 9674 9678 9683 9690 9695 9696 9697 9700 9704 9705 9707 9712 9720 9730 9741 9747 9750 9752 9757 9765 9771 9775 9780 9784 9789 9794 9798 9803 9810 9814 9818 9824 9829 9832 9837 9843 9848 9852 9857 9863 9868 9873 9878 9885 9892 9898 9902 9906 9910 9916 9921 9926 9932 9937 9942 9948 9954 9959 9965 9971 9977 9983 9989 9994 10001 10008 10015 10022 10030
9655 9656 9658 9660 9663 9666 9671 9677 9682 9685 9686 9687 9690 9694 9697 9702 9710 9719 9727 9734 9737 9739 9743 9749 9755 9759 9764 9769 9773 9777 9782 9787 9793 9799 9804 9809 9814 9819 9822 9827 9832 9836 9841 9847 9853 9858 9863 9869 9875 9881 9886 9890 9895 9900 9905 9911 9916 9920 9926 9932 9938 9943 9948 9953 9959 9965 9971 9977 9983 9989 9996 10003 10011 10019
9646 9648 9650 9652 9655 9659 9664 9669 9673 9675 9676 9678 9682 9687 9693 9699 9707 9714 9719 9722 9725 9729 9734 9739 9744 9748 9754 9758 9762 9766 9772 9778 9784 9790 9795 9800 9806 9809 9813 9817 9822 9826 9832 9837 9843 9848 9854 9860 9866 9871 9875 9880 9885 9890 9894 9900 9905 9910 9916 9922 9926 9931 9937 9943 9948 9954 9960 9966 9972 9979 9986 9993 10001 10010
9638 9640 9642 9645 9647 9651 9655 9659 9662 9665 9667 9670 9676 9682 9687 9693 9699 9704 9708 9711 9714 9719 9724 9730 9734 9738 9743 9748 9751 9757 9764 9770 9776 9782 9787 9792 9796 9799 9802 9807 9812 9817 9822 9828 9834 9840 9846 9852 9857 9861 9865 9869 9874 9879 9884 9889 9895 9901 9906 9911 9915 9920 9927 9933 9938 9944 9950 9956 9963 9970 9977 9984 9992 10000
9630 9632 9634 9637 9640 9643 9647 9650 9653 9655 9658 9663 9669 9675 9679 9683 9687 9692 9696 9699 9704 9709 9715 9720 9724 9728 9734 9739 9743 9750 9757 9763 9768 9773 9778 9782 9785 9788 9792 9798 9803 9808 9814 9820 9826 9832 9837 9842 9846 9851 9855 9859 9864 9869 9875 9880 9886 9891 9896 9900 9905 9911 9918 9923 9929 9934 9941 9948 9954 9961 9967 9974 9982 9989
9622 9624 9626 9629 9632 9635 9638 9642 9644 9647 9651 9656 9662 9666 9669 9671 9675 9681 9685 9690 9696 9703 9708 9713 9717 9721 9726 9732 9737 9744 9749 9755 9760 9764 9767 9771 9774 9778 9784 9790 9795 9800 9806 9812 9818 9823 9828 9833 9837 9842 9846 9850 9855 9861 9867 9872 9877 9882 9886 9891 9896 9903 9909 9914 9920 9926 9933 9939 9945 9951 9957 9963 9971 9978
9616 9618 9620 9623 9625 9628 9631 9633 9636 9639 9643 9648 9653 9656 9658 9661 9667 9674 9678 9683 9690 9697 9701 9705 9709 9714 9719 9725 9731 9736 9741 9746 9750 9753 9756 9761 9766 9771 9777 9782 9787 9793 9799 9805 9810 9815 9819 9824 9829 9833 9837 9842 9847 9853 9859 9864 9868 9873 9878 9883 9888 9894 9900 9906 9912 9917 9924 9929 9935 9940 9946 9953 9960 9967
9610 9612 9614 9617 9619 9621 9623 9626 9629 9633 9637 9641 9645 9647 9650 9656 9663 9669 9672 9677 9684 9689 9693 9696 9701 9707 9712 9718 9723 9727 9732 9737 9740 9744 9749 9754 9759 9764 9769 9775 9780 9786 9792 9798 9803 9807 9812 9816 9821 9825 9830 9834 9839 9845 9851 9856 9860 9865 9870 9875 9880 9885 9891 9898 9903 9908 9914 9920 9925 9930 9936 9943 9950 9957
9605 9606 9609 9611 9613 9615 9618 9621 9624 9627 9631 9636 9640 9642 9646 9653 9659 9662 9666 9672 9677 9681 9685 9690 9696 9701 9706 9710 9715 9719 9724 9728 9732 9737 9742 9748 9752 9757 9763 9768 9774 9780 9786 9791 9795 9800 9805 9809 9813 9818 9823 9827 9832 9838 9843 9848 9852 9857 9862 9867 9872 9878 9884 9890 9895 9899 9905 9910 9915 9921 9927 9933 9940 9947
9601 9602 9604 9606 9608 9611 9613 9615 9618 9622 9627 9632 9635 9638 9643 9648 9653 9656 9661 9666 9671 9675 9680 9686 9690 9695 9699 9703 9708 9713 9717 9721 9726 9731 9735 9740 9746 9751 9757 9762 9768 9774 9779 9784 9788 9793 9798 9802 9806 9811 9816 9820 9825 9830 9835 9840 9844 9849 9854 9860 9865 9870 9876 9881 9886 9891 9896 9901 9907 9912 9919 9925 9932 9939
9596 9598 9600 9602 9604 9606 9608 9611 9615 9619 9624 9627 9630 9633 9639 9643 9647 9652 9657 9662 9666 9671 9675 9680 9684 9687 9692 9697 9702 9707 9711 9716 9720 9725 9729 9734 9740 9746 9751 9756 9762 9767 9772 9777 9782 9787 9791 9795 9800 9805 9809 9813 9818 9823 9828 9833 9837 9842 9847 9853 9857 9863 9868 9873 9878 9883 9888 9893 9899 9905 9911 9917 9924 9931
9592 9594 9595 9597 9599 9602 9605 9608 9612 9615 9619 9621 9625 9629 9634 9639 9643 9649 9654 9658 9661 9665 9669 9673 9677 9681 9686 9691 9696 9701 9706 9710 9714 9719 9724 9729 9735 9740 9745 9750 9756 9761 9765 9771 9776 9780 9784 9789 9794 9799 9803 9807 9812 9816 9821 9826 9830 9835 9841 9846 9850 9856 9861 9866 9871 9876 9881 9886 9891 9897 9903 9910 9916 9923
9588 9590 9592 9593 9595 9598 9600 9603 9607 9611 9614 9616 9620 9625 9630 9634 9639 9644 9648 9652 9656 9660 9663 9668 9672 9676 9681 9687 9691 9695 9700 9704 9709 9714 9719 9724 9729 9734 9740 9745 9750 9755 9760 9765 9770 9774 9778 9783 9787 9792 9796 9800 9804 9809 9814 9819 9824 9829 9834 9839 9844 9849 9854 9859 9864 9869 9874 9879 9884 9890 9896 9903 9909 9916
9586 9587 9589 9590 9592 9594 9596 9598 9601 9605 9608 9612 9617 9622 9626 9631 9635 9639 9643 9647 9651 9655 9659 9663 9667 9672 9677 9681 9686 9690 9695 9700 9705 9710 9715 9720 9725 9730 9736 9740 9745 9750 9754 9759 9763 9768 9772 9776 9780 9784 9788 9793 9797 9802 9807 9812 9817 9823 9828 9832 9838 9843 9848 9853 9858 9863 9867 9872 9877 9883 9890 9896 9903 9909
9583 9585 9586 9588 9589 9591 9594 9596 9598 9601 9604 9609 9614 9619 9623 9627 9630 9634 9638 9642 9646 9650 9654 9658 9663 9667 9672 9676 9681 9686 9691 9696 9701 9706 9711 9716 9721 9726 9731 9735 9740 9744 9749 9753 9758 9762 9766 9770 9774 9777 9781 9786 9791 9796 9802 9807 9812 9817 9822 9826 9832 9837 9841 9846 9852 9856 9861 9866 9871 9877 9884 9891 9897 9903
9581 9583 9585 9587 9588 9590 9592 9595 9597 9600 9603 9607 9611 9615 9619 9622 9626 9630 9633 9637 9642 9646 9649 9654 9658 9663 9668 9673 9677 9682 9687 9692 9697 9702 9706 9711 9716 9721 9725 9730 9734 9738 9743 9748 9753 9757 9760 9764 9767 9770 9775 9781 9787 9792 9797 9802 9806 9811 9815 9820 9826 9831 9835 9840 9845 9850 9855 9860 9865 9871 9878 9885 9891 9897
9579 9581 9583 9585 9587 9589 9591 9593 9596 9600 9603 9606 9609 9612 9615 9618 9622 9626 9630 9634 9638 9641 9645 9650 9655 9660 9665 9669 9674 9678 9683 9687 9692 9696 9701 9705 9710 9715 9719 9724 9728 9733 9738 9743 9747 9751 9754 9757 9760 9765 9771 9778 9783 9787 9791 9796 9801 9805 9809 9815 9820 9824 9829 9834 9839 9844 9849 9854 9860 9866 9873 9880 9886 9892
9577 9578 9580 9583 9585 9587 9589 9592 9595 9599 9602 9604 9607 9609 9612 9615 9619 9623 9626 9630 9634 9637 9642 9646 9651 9656 9661 9665 9670 9674 9678 9683 9687 9691 9695 9700 9704 9709 9714 9719 9724 9729 9733 9737 9740 9745 9748 9751 9755 9761 9768 9774 9777 9781 9785 9790 9794 9798 9803 9809 9814 9818 9823 9829 9834 9839 9844 9849 9854 9861 9868 9875 9880 9886
9575 9576 9578 9580 9582 9585 9587 9590 9593 9597 9599 9602 9605 9607 9610 9613 9616 9620 9623 9627 9630 9634 9638 9643 9647 9652 9656 9661 9665 9669 9673 9677 9681 9686 9690 9695 9699 9704 9710 9714 9719 9723 9727 9731 9735 9739 9743 9747 9751 9758 9764 9768 9771 9775 9780 9784 9788 9792 9798 9803 9808 9812 9818 9824 9829 9834 9839 9844 9849 9856 9863 9869 9874 9880
9573 9574 9576 9578 9580 9582 9585 9588 9591 9594 9596 9599 9602 9605 9608 9611 9614 9618 9621 9624 9627 9631 9636 9640 9644 9648 9652 9656 9660 9664 9668 9672 9676 9680 9685 9690 9694 9699 9705 9709 9714 9718 9722 9726 9730 9734 9738 9742 9747 9753 9759 9763 9766 9770 9775 9779 9782 9787 9793 9798 9802 9807 9814 9819 9824 9829 9834 9839 9844 9850 9857 9863 9868 9874